TimeEST,TemperatureF,Dew PointF,Humidity,Sea Level PressureIn,VisibilityMPH,Wind Direction,Wind SpeedMPH,Gust SpeedMPH,PrecipitationIn,Events,Conditions,WindDirDegrees,DateUTC
12:15 AM,32.0,31.8,99,30.20,3.0,NNW,6.9,-,N/A,,Light Drizzle,340,2014-01-31 05:15:00
12:35 AM,32.0,31.8,99,30.20,5.0,North,5.8,-,N/A,,Overcast,350,2014-01-31 05:35:00
12:55 AM,32.0,31.8,99,30.19,4.0,North,8.1,-,N/A,,Drizzle,350,2014-01-31 05:55:00
1:15 AM,32.0,31.8,99,30.19,5.0,North,8.1,-,N/A,,Overcast,360,2014-01-31 06:15:00
1:35 AM,32.0,32.0,100,30.19,5.0,North,8.1,-,N/A,,Drizzle,10,2014-01-31 06:35:00
1:55 AM,32.2,32.0,99,30.19,5.0,North,10.4,-,N/A,,Overcast,360,2014-01-31 06:55:00
2:15 AM,32.2,31.8,99,30.18,5.0,North,8.1,-,N/A,,Drizzle,360,2014-01-31 07:15:00
2:35 AM,32.2,31.8,99,30.19,7.0,North,10.4,-,N/A,,Overcast,350,2014-01-31 07:35:00
2:55 AM,32.2,31.6,98,30.19,7.0,North,9.2,-,N/A,,Overcast,350,2014-01-31 07:55:00
3:15 AM,32.2,31.6,98,30.19,7.0,North,10.4,-,N/A,,Overcast,360,2014-01-31 08:15:00
3:35 AM,32.2,31.6,98,30.19,7.0,North,6.9,-,N/A,,Overcast,350,2014-01-31 08:35:00
3:55 AM,32.4,32.0,99,30.18,7.0,North,8.1,-,N/A,,Overcast,360,2014-01-31 08:55:00
4:15 AM,32.5,32.0,98,30.17,7.0,North,8.1,-,N/A,,Overcast,360,2014-01-31 09:15:00
4:35 AM,32.5,32.0,98,30.18,7.0,North,5.8,-,N/A,,Overcast,10,2014-01-31 09:35:00
4:55 AM,32.9,32.0,96,30.18,7.0,North,4.6,-,N/A,,Overcast,10,2014-01-31 09:55:00
5:15 AM,32.9,32.0,96,30.19,7.0,North,5.8,-,N/A,,Overcast,10,2014-01-31 10:15:00
5:35 AM,33.3,32.2,96,30.20,7.0,North,4.6,-,N/A,,Overcast,360,2014-01-31 10:35:00
5:55 AM,32.9,32.0,96,30.19,7.0,North,5.8,-,N/A,,Overcast,360,2014-01-31 10:55:00
6:15 AM,33.3,32.0,95,30.19,7.0,North,4.6,-,N/A,,Overcast,10,2014-01-31 11:15:00
6:35 AM,33.1,32.0,96,30.19,7.0,North,3.5,-,N/A,,Overcast,10,2014-01-31 11:35:00
6:55 AM,33.8,32.4,94,30.20,7.0,Calm,Calm,-,N/A,,Overcast,0,2014-01-31 11:55:00
7:15 AM,33.8,32.2,94,30.20,7.0,North,3.5,-,N/A,,Overcast,360,2014-01-31 12:15:00
7:35 AM,33.8,32.4,94,30.20,5.0,North,5.8,-,N/A,,Overcast,360,2014-01-31 12:35:00
7:55 AM,33.8,32.5,95,30.21,3.0,North,6.9,-,N/A,,Overcast,360,2014-01-31 12:55:00
8:15 AM,34.0,32.9,96,30.21,4.0,North,5.8,-,N/A,,Overcast,360,2014-01-31 13:15:00
8:35 AM,34.5,33.1,94,30.23,7.0,Calm,Calm,-,N/A,,Overcast,0,2014-01-31 13:35:00
8:55 AM,34.9,33.3,94,30.24,5.0,North,4.6,-,N/A,,Overcast,350,2014-01-31 13:55:00
9:15 AM,34.9,33.6,95,30.24,2.0,NNW,8.1,-,N/A,,Overcast,340,2014-01-31 14:15:00
9:35 AM,35.2,33.8,94,30.25,2.5,North,6.9,-,N/A,,Overcast,350,2014-01-31 14:35:00
9:55 AM,35.6,34.0,94,30.25,3.0,North,4.6,-,N/A,,Overcast,350,2014-01-31 14:55:00
10:15 AM,37.4,35.4,93,30.25,7.0,North,4.6,-,N/A,,Overcast,350,2014-01-31 15:15:00
10:35 AM,39.4,35.8,87,30.25,10.0,NNE,3.5,-,N/A,,Overcast,20,2014-01-31 15:35:00
10:55 AM,41.5,35.8,80,30.24,10.0,NW,3.5,-,N/A,,Overcast,310,2014-01-31 15:55:00
11:15 AM,45.7,38.1,75,30.24,10.0,NNW,5.8,-,N/A,,Scattered Clouds,330,2014-01-31 16:15:00
11:35 AM,47.7,38.1,70,30.22,10.0,NNW,3.5,-,N/A,,Clear,340,2014-01-31 16:35:00
11:55 AM,50.0,39.4,67,30.21,10.0,NNW,3.5,-,N/A,,Clear,340,2014-01-31 16:55:00
1:55 PM,51.1,40.1,66,30.18,10.0,SSW,4.6,-,N/A,,Clear,200,2014-01-31 18:55:00
2:15 PM,49.6,39.6,68,30.17,10.0,South,4.6,-,N/A,,Clear,190,2014-01-31 19:15:00
2:35 PM,50.5,39.9,67,30.16,10.0,SSW,3.5,-,N/A,,Clear,200,2014-01-31 19:35:00
2:55 PM,51.1,40.1,66,30.17,10.0,SSE,5.8,-,N/A,,Clear,160,2014-01-31 19:55:00
3:15 PM,49.5,40.5,71,30.17,10.0,South,4.6,-,N/A,,Clear,180,2014-01-31 20:15:00
3:35 PM,49.3,40.5,72,30.16,10.0,South,3.5,-,N/A,,Clear,170,2014-01-31 20:35:00
3:55 PM,48.4,39.9,73,30.17,10.0,SSE,3.5,-,N/A,,Clear,150,2014-01-31 20:55:00
4:15 PM,49.1,40.6,73,30.17,10.0,Calm,Calm,-,N/A,,Clear,0,2014-01-31 21:15:00
4:35 PM,48.7,40.8,74,30.18,10.0,Calm,Calm,-,N/A,,Clear,0,2014-01-31 21:35:00
4:55 PM,48.9,41.2,75,30.18,10.0,Calm,Calm,-,N/A,,Clear,0,2014-01-31 21:55:00
5:15 PM,47.7,41.0,78,30.19,10.0,SSE,3.5,-,N/A,,Clear,150,2014-01-31 22:15:00
5:35 PM,46.0,40.6,81,30.19,10.0,Calm,Calm,-,N/A,,Clear,0,2014-01-31 22:35:00
5:55 PM,43.9,40.1,87,30.19,10.0,Calm,Calm,-,N/A,,Clear,0,2014-01-31 22:55:00
6:15 PM,42.6,39.7,90,30.19,10.0,Calm,Calm,-,N/A,,Clear,0,2014-01-31 23:15:00
6:35 PM,41.5,38.3,88,30.20,10.0,Calm,Calm,-,N/A,,Clear,0,2014-01-31 23:35:00
6:55 PM,40.1,38.5,94,30.20,10.0,Calm,Calm,-,N/A,,Clear,0,2014-01-31 23:55:00
7:15 PM,39.2,36.9,91,30.20,10.0,Calm,Calm,-,N/A,,Clear,0,2014-02-01 00:15:00
7:35 PM,39.0,37.4,94,30.20,10.0,Calm,Calm,-,N/A,,Clear,0,2014-02-01 00:35:00
7:55 PM,37.4,36.1,95,30.21,10.0,Calm,Calm,-,N/A,,Clear,0,2014-02-01 00:55:00
8:15 PM,37.4,36.1,95,30.20,5.0,Calm,Calm,-,N/A,,Clear,0,2014-02-01 01:15:00
8:35 PM,37.4,36.0,95,30.20,7.0,Calm,Calm,-,N/A,,Clear,0,2014-02-01 01:35:00
8:55 PM,35.6,34.3,95,30.20,10.0,Calm,Calm,-,N/A,,Clear,0,2014-02-01 01:55:00
9:15 PM,35.6,34.0,94,30.21,10.0,Calm,Calm,-,N/A,,Clear,0,2014-02-01 02:15:00
9:35 PM,35.4,34.0,94,30.20,10.0,Calm,Calm,-,N/A,,Clear,0,2014-02-01 02:35:00
9:55 PM,34.2,32.9,95,30.21,10.0,Calm,Calm,-,N/A,,Clear,0,2014-02-01 02:55:00
10:15 PM,34.3,32.7,94,30.21,10.0,Calm,Calm,-,N/A,,Clear,0,2014-02-01 03:15:00
10:35 PM,33.8,32.4,94,30.22,10.0,Calm,Calm,-,N/A,,Clear,0,2014-02-01 03:35:00
10:55 PM,33.8,32.2,94,30.21,10.0,Calm,Calm,-,N/A,,Clear,0,2014-02-01 03:55:00
11:15 PM,33.8,32.7,96,30.22,10.0,Calm,Calm,-,N/A,,Clear,0,2014-02-01 04:15:00
11:35 PM,33.3,32.0,95,30.21,10.0,Calm,Calm,-,N/A,,Clear,0,2014-02-01 04:35:00
11:55 PM,33.4,32.2,95,30.21,10.0,Calm,Calm,-,N/A,,Clear,0,2014-02-01 04:55:00